Location: Salamanca
(40.9670°N, 5.6500°W)
Time: 15:11:53
(UTC+02:00)

Daily predictions for brighter satellites

Satellite Brightness Start Highest point End
(mag) Time Altitude Azimuth Time Altitude Azimuth Time Altitude Azimuth
H-2A R/B 4.4 22:29:39 10° ENE 22:30:17 10° NE 22:30:56 10° NE
Cosmos 371 Rocket 4.1 22:26:17 10° NNW 22:30:57 51° WSW 22:35:34 10° S
Cosmos 2058 4.4 22:28:25 10° SE 22:31:17 19° E 22:34:09 10° NE
Cosmos 1151 Rocket 3.5 22:28:15 10° N 22:32:24 45° ENE 22:36:33 10° SSE
Cosmos 1680 Rocket 4.1 22:27:36 10° N 22:32:37 44° ENE 22:37:38 10° SE
Cosmos 1908 3.5 22:29:34 10° N 22:33:24 51° E 22:37:12 10° SSE
ALOS 3.5 22:29:16 10° S 22:33:41 42° W 22:38:07 10° NNW
Cosmos 1833 4.2 22:28:37 10° S 22:34:14 66° ESE 22:39:52 10° NNE
Meteor 2-20 4.5 22:28:41 10° S 22:34:45 66° E 22:40:50 10° NNE
Cosmos 923 Rocket 4.1 22:31:59 10° NNW 22:37:10 64° ENE 22:42:19 10° SSE
NOSS 3-1 (A) 4.4 22:33:02 10° SSE 22:37:34 24° ESE 22:42:25 10° ENE
Cosmos 2333 Rocket 4.3 22:34:45 10° NNE 22:37:43 14° NE 22:40:42 10° ENE
USA 186 4.0 22:39:42 10° SW 22:41:24 17° W 22:43:09 10° NW
Cosmos 1674 2.7 22:38:37 10° S 22:42:22 61° E 22:46:12 10° NNE
CZ-4 SHROUD 4.2 22:40:46 10° SE 22:43:35 32° ENE 22:46:26 10° N
Cosmos 405 3.1 22:41:39 10° N 22:45:16 65° E 22:48:51 10° SSE
COSMOS 2428 3.5 22:44:58 10° N 22:50:16 38° ENE 22:55:13 11° SE
Cosmos 773 Rocket 4.2 22:45:21 10° NNW 22:50:33 77° WSW 22:55:46 10° SSE
MetOp-A 4.5 22:48:02 10° SE 22:53:11 51° ENE 22:58:22 10° N
Cosmos 1300 3.9 22:51:40 10° NNE 22:54:58 27° ENE 22:57:38 13° SE
YAOGAN 6 3.5 22:54:47 13° SE 22:57:39 34° ENE 23:00:57 10° N
Cosmos 2219 Rocket 3.7 22:54:46 10° N 22:59:14 24° NE 23:03:41 10° ESE
H-2A R/B 2.5 22:54:54 10° S 22:59:24 69° WSW 23:03:56 10° NNW
ARGOS 4.1 22:54:58 12° SE 22:59:27 34° ENE 23:04:17 10° N
SPOT 5 2.8 22:55:44 10° SSE 23:00:15 71° ENE 23:05:04 10° N
ATLAS 2AS CENTAUR R/B 4.3 22:56:29 11° SE 23:00:18 17° ESE 23:04:49 10° ENE
Cosmos 1707 Rocket 4.4 22:57:05 10° N 23:01:05 35° ENE 23:04:16 15° SE
ATLAS CENTAUR R/B 4.3 23:01:00 10° W 23:01:45 10° WSW 23:02:30 10° WSW
Cosmos 1939 Rocket 3.2 22:58:41 10° S 23:02:36 63° W 23:06:28 10° NNW
Cosmos 1666 Rocket 4.4 23:01:29 13° SSE 23:04:55 32° E 23:08:52 10° NNE
Tiangong 1 1.7 23:02:58 10° SW 23:05:48 33° SSE 23:08:37 10° E
Cosmos 1437 Rocket 3.8 23:02:53 10° NNW 23:06:31 44° W 23:10:11 10° SSW
Cosmos 304 Rocket 3.9 23:04:36 10° NNW 23:09:26 80° WSW 23:13:51 12° SSE
Cosmos 2237 4.4 23:06:18 10° NNW 23:11:59 60° ENE 23:16:27 16° SE
Cosmos 1455 4.4 23:15:52 10° NE 23:17:21 12° ENE 23:18:38 10° E
Cosmos 2219 3.2 23:17:23 10° SSW 23:23:08 88° ESE 23:28:55 10° NNE
NOSS 3-1 (C) 3.3 23:18:05 10° SSW 23:23:52 70° ESE 23:30:17 10° NE
Envisat 3.7 23:19:32 10° S 23:24:28 52° W 23:29:27 10° NNW
PSLV R/B 3.8 23:23:24 15° S 23:25:46 52° W 23:28:46 10° NNW
Cosmos 2237 Rocket 3.5 23:25:41 10° N 23:30:33 28° NE 23:34:14 15° ESE
Cosmos 2333 4.4 23:24:52 10° NNW 23:30:33 63° ENE 23:34:24 21° SE
Cosmos 2322 4.4 23:26:45 10° NW 23:32:16 50° WSW 23:37:09 13° S
Cosmos 292 Rocket 4.4 23:28:03 10° N 23:32:36 43° ENE 23:35:12 22° SE
Cosmos 1726 2.1 23:33:40 10° N 23:37:26 70° E 23:39:20 27° SSE
CZ-4C R/B 3.8 23:36:35 27° ESE 23:37:50 36° ENE 23:41:03 10° N
Meteor 1-27 4.2 23:33:44 10° N 23:39:27 88° E 23:43:34 19° S
Delta 2 Rocket 3.5 23:36:52 10° WSW 23:40:04 33° S 23:40:31 32° SSE
Cosmos 2360 Rocket 3.2 23:37:00 10° NW 23:42:14 40° WSW 23:46:59 12° S
Cosmos 1937 Rocket 3.6 23:41:07 18° S 23:44:52 53° ESE 23:49:56 10° NNE
Cosmos 2298 Rocket 4.0 23:40:09 10° SSW 23:45:28 89° ESE 23:50:49 10° NNE
NOAA 11 4.1 23:41:53 22° SSE 23:45:33 82° ENE 23:51:02 10° NNW
Terra 2.5 23:46:46 25° ESE 23:48:57 39° ENE 23:53:22 10° N
ERBS 4.1 23:52:08 19° E 23:52:08 19° E 23:53:28 10° ENE
Cosmos 2242 Rocket 3.6 23:47:33 10° N 23:52:02 75° E 23:54:13 30° SSE
Cosmos 1271 Rocket 2.7 23:49:11 10° N 23:53:01 68° E 23:54:24 37° SSE
DELTA 2 R/B (1) 4.3 23:48:46 10° W 23:53:47 35° SSW 23:55:52 26° SSE
